| time (UTC) | temp C | wind direction | speed KPH | gust KPH | rain 1hr cm | rain 24hr cm | rain mn cm | humidity % | barometer mb |
| 20260502170518 | -17 | 0.0 | 0.0 | 0.00 | 0.03 | 0.03 | 1021.3 | ||
| 20260502164012 | -17 | 0.0 | 0.0 | 0.00 | 0.03 | 0.03 | 1021.5 | ||
| 20260502163514 | -17 | 0.0 | 0.0 | 0.00 | 0.03 | 0.03 | 1021.4 | ||
| 20260502163040 | -17 | 0.0 | 0.0 | 0.00 | 0.03 | 0.03 | 1021.4 | ||
| 20260502162512 | -17 | 0.0 | 0.0 | 0.00 | 0.03 | 0.03 | 1021.4 | ||
| 20260502162016 | -17 | 0.0 | 0.0 | 0.00 | 0.03 | 0.03 | 1021.4 | ||
| 20260502161539 | -17 | 0.0 | 0.0 | 0.00 | 0.03 | 0.03 | 1021.5 | ||
| 20260502161011 | -17 | 0.0 | 0.0 | 0.00 | 0.03 | 0.03 | 1021.5 | ||
| 20260502160513 | -17 | 0.0 | 0.0 | 0.00 | 0.03 | 0.03 | 1021.5 | ||
| 20260502152014 | -17 | 0.0 | 0.0 | 0.00 | 0.03 | 0.03 | 1021.5 | ||
| 20260502151530 | -17 | 0.0 | 0.0 | 0.00 | 0.03 | 0.03 | 1021.4 | ||
| 20260502151012 | -17 | 0.0 | 0.0 | 0.00 | 0.03 | 0.03 | 1021.2 | ||
| 20260502150510 | -17 | 0.0 | 0.0 | 0.00 | 0.03 | 0.03 | 1021.2 | ||
| 20260502130512 | -17 | 0.0 | 0.0 | 0.00 | 0.03 | 0.03 | 1019.9 | ||
| 20260502123510 | -17 | 0.0 | 0.0 | 0.00 | 0.03 | 0.03 | 1019.3 | ||
| 20260502123045 | -17 | 0.0 | 0.0 | 0.00 | 0.03 | 0.03 | 1019.3 | ||
| 20260502122512 | -17 | 0.0 | 0.0 | 0.00 | 0.03 | 0.03 | 1019.4 | ||
| 20260502122014 | -17 | 0.0 | 0.0 | 0.00 | 0.03 | 0.03 | 1019.3 | ||
| 20260502121530 | -17 | 0.0 | 0.0 | 0.00 | 0.03 | 0.03 | 1019.2 | ||
| 20260502121010 | 9 | 0.0 | 0.0 | 0.00 | 0.03 | 0.03 | 94 | 1019.1 | |
| 20260502120516 | 9 | 28 | 0.0 | 0.0 | 0.00 | 0.03 | 0.03 | 94 | 1019.1 |
| 20260502114006 | 9 | 28 | 0.0 | 0.0 | 0.00 | 0.03 | 0.03 | 94 | 1018.7 |
| 20260502113506 | 9 | 28 | 0.0 | 0.0 | 0.00 | 0.03 | 0.03 | 94 | 1018.6 |
| 20260502113037 | -17 | 0.0 | 0.0 | 0.00 | 0.03 | 0.03 | 1018.5 | ||
| 20260502112512 | 9 | 0.0 | 0.0 | 0.00 | 0.03 | 0.03 | 94 | 1018.4 | |
| 20260502112012 | 9 | 28 | 0.0 | 1.6 | 0.00 | 0.03 | 0.03 | 94 | 1018.3 |
| 20260502110025 | 10 | 28 | 0.0 | 0.0 | 0.00 | 0.03 | 0.03 | 94 | 1018.2 |
| 20260502105507 | 10 | 28 | 0.0 | 0.0 | 0.00 | 0.03 | 0.03 | 94 | 1018.2 |
| 20260502103507 | 9 | 28 | 0.0 | 0.0 | 0.00 | 0.03 | 0.03 | 94 | 1018.0 |
| 20260502103018 | 9 | 28 | 0.0 | 0.0 | 0.00 | 0.03 | 0.03 | 94 | 1018.0 |
| 20260502102011 | 9 | 28 | 0.0 | 1.6 | 0.00 | 0.03 | 0.03 | 94 | 1017.8 |
| 20260502101503 | 9 | 28 | 0.0 | 1.6 | 0.00 | 0.03 | 0.03 | 94 | 1017.7 |
| 20260502101003 | 9 | 28 | 0.0 | 3.2 | 0.00 | 0.03 | 0.03 | 94 | 1017.7 |
| 20260502100503 | 9 | 28 | 0.0 | 3.2 | 0.00 | 0.03 | 0.03 | 94 | 1017.6 |
| 20260502091521 | 9 | 28 | 0.0 | 0.0 | 0.00 | 0.03 | 0.03 | 94 | 1017.4 |
| 20260502091009 | 9 | 28 | 0.0 | 0.0 | 0.00 | 0.03 | 0.03 | 94 | 1017.3 |
| 20260502090506 | 9 | 28 | 0.0 | 0.0 | 0.00 | 0.05 | 0.03 | 94 | 1017.2 |
| 20260502071516 | 10 | 28 | 0.0 | 1.6 | 0.00 | 0.03 | 0.00 | 94 | 1016.5 |
| 20260502071006 | 10 | 28 | 0.0 | 1.6 | 0.00 | 0.03 | 0.00 | 94 | 1016.5 |
| 20260502070512 | 10 | 28 | 0.0 | 0.0 | 0.00 | 0.05 | 0.00 | 94 | 1016.5 |
| 20260502070020 | 10 | 28 | 0.0 | 0.0 | 0.00 | 0.05 | 0.00 | 94 | 1016.4 |
| 20260502065507 | 10 | 28 | 0.0 | 0.0 | 0.00 | 0.05 | 0.00 | 94 | 1016.5 |
| 20260502065016 | 10 | 29 | 0.0 | 0.0 | 0.00 | 0.05 | 0.00 | 94 | 1016.5 |
| 20260502064524 | 10 | 29 | 0.0 | 0.0 | 0.00 | 0.05 | 0.00 | 94 | 1016.6 |
| 20260502064006 | 10 | 29 | 0.0 | 1.6 | 0.00 | 0.05 | 0.00 | 94 | 1016.6 |
| 20260502063507 | 11 | 29 | 0.0 | 1.6 | 0.00 | 0.05 | 0.00 | 94 | 1016.7 |
| 20260502063021 | 11 | 29 | 0.0 | 1.6 | 0.00 | 0.05 | 0.00 | 94 | 1016.8 |
| 20260502062513 | 11 | 29 | 0.0 | 1.6 | 0.00 | 0.05 | 0.00 | 94 | 1016.8 |
| 20260502062012 | 11 | 29 | 0.0 | 1.6 | 0.00 | 0.05 | 0.00 | 94 | 1016.7 |
| 20260502061509 | 11 | 28 | 0.0 | 0.0 | 0.00 | 0.05 | 0.00 | 94 | 1016.7 |
| 20260502061005 | 11 | 28 | 0.0 | 0.0 | 0.00 | 0.05 | 0.00 | 94 | 1016.7 |
| 20260502060508 | 11 | 28 | 0.0 | 1.6 | 0.00 | 0.05 | 0.00 | 94 | 1016.8 |
| 20260502060017 | 11 | 28 | 0.0 | 1.6 | 0.00 | 0.05 | 0.00 | 94 | 1016.7 |
| 20260502055507 | 11 | 28 | 0.0 | 1.6 | 0.00 | 0.05 | 0.00 | 94 | 1016.7 |
| 20260502055010 | 11 | 28 | 0.0 | 1.6 | 0.00 | 0.05 | 0.00 | 94 | 1016.8 |
| 20260502054520 | 11 | 28 | 0.0 | 1.6 | 0.00 | 0.05 | 0.00 | 94 | 1016.9 |
| 20260502054009 | 11 | 28 | 0.0 | 1.6 | 0.00 | 0.05 | 0.00 | 94 | 1016.9 |
| 20260502053508 | 11 | 336 | 0.0 | 1.6 | 0.00 | 0.05 | 0.00 | 94 | 1016.8 |
| 20260502053025 | 11 | 336 | 0.0 | 1.6 | 0.00 | 0.05 | 0.00 | 94 | 1016.9 |
| 20260502052507 | 11 | 15 | 0.0 | 1.6 | 0.00 | 0.05 | 0.00 | 94 | 1017.0 |
| 20260502052009 | 11 | 14 | 0.0 | 1.6 | 0.00 | 0.05 | 0.00 | 94 | 1017.0 |
| 20260502051508 | 11 | 14 | 0.0 | 0.0 | 0.00 | 0.05 | 0.00 | 94 | 1017.1 |
| 20260502051005 | 11 | 14 | 0.0 | 0.0 | 0.00 | 0.05 | 0.00 | 94 | 1017.1 |
| 20260502050505 | 11 | 14 | 0.0 | 0.0 | 0.00 | 0.08 | 0.00 | 94 | 1017.1 |
| 20260502050009 | 11 | 14 | 0.0 | 0.0 | 0.00 | 0.08 | 0.00 | 94 | 1017.2 |
| 20260502045506 | 11 | 14 | 0.0 | 3.2 | 0.00 | 0.08 | 0.08 | 94 | 1017.2 |
| 20260502045008 | 11 | 360 | 0.0 | 4.8 | 0.00 | 0.08 | 0.08 | 94 | 1017.2 |
| 20260502044515 | 11 | 258 | 1.6 | 4.8 | 0.00 | 0.08 | 0.08 | 94 | 1017.3 |
| 20260502044002 | 11 | 127 | 0.0 | 0.0 | 0.00 | 0.08 | 0.08 | 94 | 1017.2 |
| 20260502043503 | 11 | 37 | 0.0 | 1.6 | 0.00 | 0.08 | 0.08 | 94 | 1017.3 |
| 20260502043003 | 11 | 37 | 0.0 | 3.2 | 0.00 | 0.08 | 0.08 | 94 | 1017.3 |
| 20260502042504 | 11 | 37 | 0.0 | 3.2 | 0.00 | 0.08 | 0.08 | 94 | 1017.2 |
| 20260502042007 | 11 | 37 | 0.0 | 3.2 | 0.00 | 0.08 | 0.08 | 94 | 1017.3 |
| 20260502041509 | 11 | 57 | 0.0 | 0.0 | 0.00 | 0.08 | 0.08 | 94 | 1017.3 |
| 20260502041006 | 11 | 57 | 0.0 | 3.2 | 0.00 | 0.08 | 0.08 | 94 | 1017.1 |
| 20260502040507 | 11 | 87 | 0.0 | 3.2 | 0.00 | 0.08 | 0.08 | 94 | 1017.1 |
| 20260502040008 | 11 | 113 | 0.0 | 3.2 | 0.00 | 0.08 | 0.08 | 94 | 1017.1 |
| 20260502035503 | 11 | 339 | 0.0 | 3.2 | 0.00 | 0.10 | 0.08 | 94 | 1017.0 |
| 20260502035009 | 11 | 31 | 0.0 | 4.8 | 0.00 | 0.10 | 0.08 | 94 | 1017.1 |
| 20260502034517 | 11 | 52 | 1.6 | 4.8 | 0.00 | 0.10 | 0.08 | 94 | 1017.1 |
| 20260502034008 | 11 | 49 | 1.6 | 4.8 | 0.00 | 0.10 | 0.08 | 94 | 1016.9 |
| 20260502033505 | 11 | 51 | 0.0 | 4.8 | 0.00 | 0.10 | 0.08 | 94 | 1016.7 |
| 20260502033015 | 11 | 25 | 0.0 | 9.7 | 0.00 | 0.10 | 0.08 | 94 | 1016.5 |
| 20260502032507 | 11 | 135 | 0.0 | 9.7 | 0.00 | 0.10 | 0.08 | 94 | 1016.4 |
| 20260502032002 | 11 | 56 | 0.0 | 8.0 | 0.00 | 0.10 | 0.08 | 94 | 1016.3 |
| 20260502031504 | 12 | 61 | 3.2 | 8.0 | 0.00 | 0.10 | 0.08 | 94 | 1016.3 |
| 20260502031005 | 12 | 59 | 1.6 | 6.4 | 0.00 | 0.10 | 0.08 | 94 | 1016.3 |
| 20260502030504 | 12 | 228 | 1.6 | 4.8 | 0.00 | 0.10 | 0.08 | 94 | 1016.4 |
| 20260502030006 | 12 | 36 | 1.6 | 4.8 | 0.00 | 0.10 | 0.08 | 94 | 1016.4 |
| 20260502025508 | 12 | 10 | 0.0 | 4.8 | 0.00 | 0.10 | 0.08 | 94 | 1016.0 |
| 20260502025003 | 12 | 123 | 0.0 | 4.8 | 0.00 | 0.10 | 0.08 | 94 | 1015.9 |
| 20260502024514 | 12 | 30 | 1.6 | 4.8 | 0.00 | 0.10 | 0.08 | 94 | 1015.8 |
| 20260502024008 | 12 | 60 | 0.0 | 4.8 | 0.00 | 0.10 | 0.08 | 94 | 1015.8 |
| 20260502023507 | 12 | 62 | 0.0 | 4.8 | 0.00 | 0.10 | 0.08 | 94 | 1016.4 |
| 20260502023019 | 12 | 10 | 1.6 | 4.8 | 0.00 | 0.10 | 0.08 | 94 | 1016.5 |
| 20260502022505 | 12 | 56 | 0.0 | 3.2 | 0.00 | 0.10 | 0.08 | 94 | 1015.8 |
| 20260502022009 | 12 | 306 | 0.0 | 6.4 | 0.00 | 0.10 | 0.08 | 94 | 1015.6 |
| 20260502021006 | 12 | 263 | 0.0 | 4.8 | 0.00 | 0.10 | 0.08 | 94 | 1015.3 |
| 20260502020509 | 12 | 263 | 0.0 | 8.0 | 0.00 | 0.10 | 0.08 | 94 | 1015.0 |
| 20260502020006 | 12 | 30 | 1.6 | 8.0 | 0.00 | 0.10 | 0.08 | 94 | 1014.9 |
| 20260502015505 | 12 | 55 | 1.6 | 4.8 | 0.00 | 0.10 | 0.08 | 94 | 1014.9 |
| 20260502015005 | 12 | 38 | 1.6 | 4.8 | 0.00 | 0.10 | 0.08 | 94 | 1015.2 |
| 20260502014511 | 12 | 74 | 0.0 | 6.4 | 0.00 | 0.13 | 0.08 | 94 | 1015.2 |
| 20260502014003 | 12 | 58 | 0.0 | 6.4 | 0.00 | 0.13 | 0.08 | 94 | 1015.3 |
| 20260502013503 | 12 | 18 | 0.0 | 4.8 | 0.00 | 0.13 | 0.08 | 94 | 1015.2 |
| 20260502013013 | 12 | 280 | 0.0 | 4.8 | 0.00 | 0.13 | 0.08 | 94 | 1015.2 |
| 20260502012505 | 11 | 165 | 0.0 | 3.2 | 0.00 | 0.13 | 0.08 | 94 | 1015.0 |
| 20260502012013 | 11 | 26 | 0.0 | 0.0 | 0.00 | 0.13 | 0.08 | 94 | 1014.8 |
| 20260502011518 | 11 | 26 | 0.0 | 0.0 | 0.00 | 0.13 | 0.08 | 94 | 1014.8 |
| 20260502011009 | 11 | 265 | 0.0 | 3.2 | 0.00 | 0.13 | 0.08 | 94 | 1014.9 |
| 20260502010513 | 11 | 257 | 0.0 | 3.2 | 0.00 | 0.13 | 0.08 | 94 | 1014.7 |
| 20260502010025 | 11 | 341 | 0.0 | 0.0 | 0.00 | 0.15 | 0.08 | 94 | 1014.5 |
| 20260502004010 | 11 | 313 | 1.6 | 6.4 | 0.00 | 0.15 | 0.08 | 94 | 1014.5 |
| 20260502003505 | 12 | 51 | 0.0 | 6.4 | 0.00 | 0.15 | 0.08 | 94 | 1014.4 |
| 20260502003012 | 12 | 35 | 1.6 | 6.4 | 0.00 | 0.15 | 0.08 | 94 | 1014.4 |
| 20260502002508 | 12 | 50 | 3.2 | 0.0 | 0.00 | 0.15 | 0.08 | 94 | 1014.2 |
| 20260502002011 | -17 | 0.0 | 0.0 | 0.00 | 0.15 | 0.08 | 1014.1 | ||
| 20260502001523 | -17 | 0.0 | 0.0 | 0.00 | 0.15 | 0.08 | 1013.8 | ||
| 20260502001012 | -17 | 0.0 | 0.0 | 0.00 | 0.15 | 0.08 | 1013.5 | ||
| 20260502000509 | -17 | 0.0 | 0.0 | 0.00 | 0.15 | 0.08 | 1013.1 | ||
| 20260502000021 | -17 | 0.0 | 0.0 | 0.00 | 0.15 | 0.08 | 1013.0 | ||
| 20260501235511 | -17 | 0.0 | 0.0 | 0.00 | 0.15 | 0.08 | 1013.0 | ||
| 20260501235011 | -17 | 0.0 | 0.0 | 0.00 | 0.15 | 0.08 | 1013.1 | ||
| 20260501234521 | -17 | 0.0 | 0.0 | 0.00 | 0.15 | 0.08 | 1013.0 | ||
| 20260501233515 | -17 | 0.0 | 0.0 | 0.00 | 0.15 | 0.08 | 1012.9 | ||
| 20260501233024 | -17 | 0.0 | 0.0 | 0.00 | 0.15 | 0.08 | 1012.8 | ||
| 20260501232508 | -17 | 0.0 | 0.0 | 0.00 | 0.15 | 0.08 | 1012.4 | ||
| 20260501232010 | -17 | 0.0 | 0.0 | 0.00 | 0.15 | 0.08 | 1012.6 | ||
| 20260501231523 | -17 | 0.0 | 0.0 | 0.00 | 0.15 | 0.08 | 1013.0 | ||
| 20260501231008 | -17 | 0.0 | 0.0 | 0.00 | 0.15 | 0.08 | 1013.1 | ||
| 20260501230508 | -17 | 0.0 | 0.0 | 0.00 | 0.15 | 0.08 | 1013.4 | ||
| 20260501230024 | -17 | 0.0 | 0.0 | 0.00 | 0.15 | 0.08 | 1013.5 | ||
| 20260501225511 | -17 | 0.0 | 0.0 | 0.00 | 0.15 | 0.08 | 1013.6 | ||
| 20260501225013 | -17 | 0.0 | 0.0 | 0.00 | 0.15 | 0.08 | 1013.6 | ||
| 20260501224528 | -17 | 0.0 | 0.0 | 0.00 | 0.15 | 0.08 | 1013.6 | ||
| 20260501224010 | -17 | 0.0 | 0.0 | 0.00 | 0.15 | 0.08 | 1014.0 | ||
| 20260501223510 | -17 | 0.0 | 0.0 | 0.00 | 0.15 | 0.08 | 1014.9 | ||
| 20260501223026 | -17 | 0.0 | 0.0 | 0.00 | 0.15 | 0.08 | 1014.9 | ||
| 20260501222507 | -17 | 0.0 | 0.0 | 0.00 | 0.15 | 0.08 | 1014.5 | ||
| 20260501222016 | -17 | 0.0 | 0.0 | 0.00 | 0.15 | 0.08 | 1014.1 | ||
| 20260501221524 | -17 | 0.0 | 0.0 | 0.00 | 0.15 | 0.08 | 1013.6 | ||
| 20260501221008 | -17 | 0.0 | 0.0 | 0.00 | 0.15 | 0.08 | 1013.3 | ||
| 20260501220511 | -17 | 0.0 | 0.0 | 0.00 | 0.15 | 0.08 | 1013.2 | ||
| 20260501220022 | -17 | 0.0 | 0.0 | 0.00 | 0.15 | 0.08 | 1013.0 | ||
| 20260501215508 | -17 | 0.0 | 0.0 | 0.00 | 0.15 | 0.08 | 1012.7 | ||
| 20260501215009 | -17 | 0.0 | 0.0 | 0.00 | 0.15 | 0.08 | 1012.5 | ||
| 20260501214538 | -17 | 0.0 | 0.0 | 0.00 | 0.15 | 0.08 | 1012.1 | ||
| 20260501214009 | -17 | 0.0 | 0.0 | 0.00 | 0.15 | 0.08 | 1012.5 | ||
| 20260501213509 | -17 | 0.0 | 0.0 | 0.00 | 0.15 | 0.08 | 1013.2 | ||
| 20260501213025 | -17 | 0.0 | 0.0 | 0.00 | 0.15 | 0.08 | 1013.1 | ||
| 20260501212013 | -17 | 0.0 | 0.0 | 0.00 | 0.15 | 0.08 | 1012.6 | ||
| 20260501211527 | -17 | 0.0 | 0.0 | 0.00 | 0.15 | 0.08 | 1012.9 | ||
| 20260501211012 | -17 | 0.0 | 0.0 | 0.00 | 0.15 | 0.08 | 1012.9 | ||
| 20260501210508 | -17 | 0.0 | 0.0 | 0.00 | 0.15 | 0.08 | 1012.9 | ||
| 20260501210026 | -17 | 0.0 | 0.0 | 0.00 | 0.15 | 0.08 | 1012.6 | ||
| 20260501205508 | -17 | 0.0 | 0.0 | 0.00 | 0.15 | 0.08 | 1012.4 | ||
| 20260501205008 | -17 | 0.0 | 0.0 | 0.00 | 0.15 | 0.08 | 1012.1 | ||
| 20260501204527 | -17 | 0.0 | 0.0 | 0.00 | 0.15 | 0.08 | 1011.9 | ||
| 20260501204007 | -17 | 0.0 | 0.0 | 0.00 | 0.15 | 0.08 | 1011.7 | ||
| 20260501203509 | -17 | 0.0 | 0.0 | 0.00 | 0.15 | 0.08 | 1011.7 | ||
| 20260501203029 | -17 | 0.0 | 0.0 | 0.00 | 0.15 | 0.08 | 1011.9 | ||
| 20260501202509 | -17 | 0.0 | 0.0 | 0.00 | 0.15 | 0.08 | 1012.1 | ||
| 20260501202010 | -17 | 0.0 | 0.0 | 0.00 | 0.15 | 0.08 | 1011.6 | ||
| 20260501201528 | -17 | 0.0 | 0.0 | 0.00 | 0.15 | 0.08 | 1011.2 | ||
| 20260501201006 | -17 | 0.0 | 0.0 | 0.00 | 0.15 | 0.08 | 1010.7 | ||
| 20260501200512 | -17 | 0.0 | 0.0 | 0.00 | 0.15 | 0.08 | 1012.0 | ||
| 20260501200034 | -17 | 0.0 | 0.0 | 0.00 | 0.15 | 0.08 | 1012.3 | ||
| 20260501195509 | -17 | 0.0 | 0.0 | 0.00 | 0.15 | 0.08 | 1011.9 | ||
| 20260501195007 | -17 | 0.0 | 0.0 | 0.00 | 0.15 | 0.08 | 1011.5 | ||
| 20260501194534 | -17 | 0.0 | 0.0 | 0.00 | 0.15 | 0.08 | 1011.2 | ||
| 20260501194007 | -17 | 0.0 | 0.0 | 0.00 | 0.15 | 0.08 | 1011.0 | ||
| 20260501193508 | -17 | 0.0 | 0.0 | 0.00 | 0.15 | 0.08 | 1011.0 | ||
| 20260501193029 | -17 | 0.0 | 0.0 | 0.00 | 0.15 | 0.08 | 1011.2 | ||
| 20260501192510 | -17 | 0.0 | 0.0 | 0.00 | 0.15 | 0.08 | 1011.1 | ||
| 20260501192008 | -17 | 0.0 | 0.0 | 0.00 | 0.15 | 0.08 | 1010.9 | ||
| 20260501191529 | -17 | 0.0 | 0.0 | 0.00 | 0.15 | 0.08 | 1010.7 | ||
| 20260501191018 | -17 | 0.0 | 0.0 | 0.00 | 0.15 | 0.08 | 1010.6 | ||
| 20260501190513 | -17 | 0.0 | 0.0 | 0.00 | 0.15 | 0.08 | 1010.7 | ||
| 20260501190039 | -17 | 0.0 | 0.0 | 0.00 | 0.15 | 0.08 | 1011.1 | ||
| 20260501185507 | -17 | 0.0 | 0.0 | 0.00 | 0.15 | 0.08 | 1011.0 | ||
| 20260501185011 | -17 | 0.0 | 0.0 | 0.00 | 0.15 | 0.08 | 1011.1 | ||
| 20260501184526 | -17 | 0.0 | 0.0 | 0.00 | 0.15 | 0.08 | 1011.3 | ||
| 20260501184011 | -17 | 0.0 | 0.0 | 0.00 | 0.15 | 0.08 | 1011.8 | ||
| 20260501183509 | -17 | 0.0 | 0.0 | 0.00 | 0.15 | 0.08 | 1012.3 | ||
| 20260501183027 | -17 | 0.0 | 0.0 | 0.00 | 0.15 | 0.08 | 1012.5 | ||
| 20260501182507 | -17 | 0.0 | 0.0 | 0.00 | 0.15 | 0.08 | 1013.0 | ||
| 20260501182010 | -17 | 0.0 | 0.0 | 0.00 | 0.15 | 0.08 | 1012.9 | ||
| 20260501181531 | -17 | 0.0 | 0.0 | 0.00 | 0.15 | 0.08 | 1012.8 | ||
| 20260501181008 | -17 | 0.0 | 0.0 | 0.00 | 0.15 | 0.08 | 1013.1 | ||
| 20260501180513 | -17 | 0.0 | 0.0 | 0.00 | 0.15 | 0.08 | 1013.0 | ||
| 20260501180033 | -17 | 0.0 | 0.0 | 0.00 | 0.15 | 0.08 | 1012.9 | ||
| 20260501175510 | -17 | 0.0 | 0.0 | 0.00 | 0.15 | 0.08 | 1013.1 | ||
| 20260501175016 | -17 | 0.0 | 0.0 | 0.00 | 0.15 | 0.08 | 1013.1 | ||
| 20260501174527 | -17 | 0.0 | 0.0 | 0.00 | 0.15 | 0.08 | 1013.1 | ||
| 20260501174012 | -17 | 0.0 | 0.0 | 0.00 | 0.15 | 0.08 | 1013.1 | ||
| 20260501173513 | -17 | 0.0 | 0.0 | 0.00 | 0.15 | 0.08 | 1013.2 | ||
| 20260501173033 | -17 | 0.0 | 0.0 | 0.00 | 0.15 | 0.08 | 1013.6 | ||
| 20260501172510 | -17 | 0.0 | 0.0 | 0.00 | 0.15 | 0.08 | 1014.0 | ||
| 20260501172010 | -17 | 0.0 | 0.0 | 0.00 | 0.15 | 0.08 | 1014.1 |